Flag for Brazil Weather past 2 weeks in Boa Vista, Roraima, Brazil

Now
82 °F

Passing clouds.


Feels Like: 86 °F
Forecast: 76 / 89 °F
Wind: 3 mph from Northeast

Location: Boa Vista Aeropor-To

Current Time: Sep 1, 2015 at 9:02:41 PM

Latest Report: Sep 1, 2015 at 8:00 PM


Visibility: N/A

Pressure: 29.89 "Hg

Humidity: 66%

Dew point: 70 °F

Location of Boa VistaLocation

Historic Weather in Boa Vista — Graph

°F

Boa Vista temperature yesterday

Maximum temperature yesterday: 91 °F (at 3:00 PM)
Minimum temperature yesterday: 75 °F (at 5:00 AM)
Average temperature yesterday: 82 °F

Past Weeks' High & Low Weather Summary

 TemperatureHumidityPressure
High91 °F (Aug 23, 3:00 PM)94% (Aug 18, 9:00 PM)30.01 "Hg (Aug 18, 9:00 PM)
Low72 °F (Aug 25, 12:00 PM)44% (Aug 27, 5:00 PM)29.74 "Hg (Aug 24, 5:00 PM)
Average81 °F76%29.89 "Hg
* Reported Aug 17 8:00 PM — Sep 1 8:00 PM, Boa Vista, Weather by CustomWeather, © 2015

Note: Actual official high and low records may vary slightly from our data, if they occured in-between our weather recording intervals... More about our weather records

Advertising

Boa Vista weather history for previous 24 hours

 ConditionsComfort  
Time TempWeatherWind HumidityBarometerVisibility
8:00 PM
Tue, Sep 1
82 °FPassing clouds.3 mph66%29.89 "HgN/A
7:00 PM84 °FPassing clouds.6 mph62%29.86 "HgN/A
5:00 PM90 °FScattered clouds.2 mph49%29.83 "HgN/A
4:00 PM91 °FScattered clouds.8 mph46%29.83 "HgN/A
3:00 PM91 °FScattered clouds.6 mph46%29.86 "HgN/A
2:00 PM91 °FPartly sunny.8 mph46%29.89 "HgN/A
1:00 PM90 °FPartly sunny.3 mph49%29.92 "HgN/A
12:00 PM88 °FPartly sunny.8 mph55%29.98 "HgN/A
11:00 AM88 °FScattered clouds.8 mph59%29.98 "HgN/A
10:00 AM84 °FPassing clouds.13 mph66%30.01 "HgN/A
9:00 AM84 °FSunny.8 mph66%30.01 "Hg10 mi
8:00 AM81 °FSunny.9 mph74%29.98 "Hg10 mi
7:00 AM77 °FSunny.6 mph89%29.95 "Hg10 mi
6:00 AM75 °FSunny.5 mph89%29.95 "Hg10 mi
5:00 AM75 °FClear.6 mph89%29.92 "Hg10 mi
4:00 AM77 °FClear.3 mph83%29.92 "Hg10 mi
3:00 AM77 °FClear.3 mph83%29.92 "Hg10 mi
2:00 AM77 °FClear.5 mph83%29.92 "Hg10 mi
1:00 AM77 °FClear.6 mph83%29.92 "Hg10 mi
11:00 PM
Mon, Aug 31
81 °FClear.7 mph79%29.95 "Hg10 mi
10:00 PM81 °FClear.5 mph79%29.92 "Hg10 mi
9:00 PM82 °FClear.3 mph74%29.89 "Hg10 mi
Weather by CustomWeather, © 2015

See weather overviewHow to use our weather pages